Disclaimer

Please do not use the information listed here in-flight or in-navigation, as they are not provided to us by the airports but are provided by volunteers, so they might be outdated.

Search


Regions


Airport information page

Radio informations:
EMR - 122.675 MHz

Airport informations:
Latitude: 49° 57' 22.00" N
Longitude: 119° 22' 40.00" W
Elevation: 1409 feet - 429 meters
Operating hours: N/A
Operating agency: Municipal
Timezone: Second Sunday in March at 0200 to first Sunday in November at 0200 local time (Exception Arizona and that portion of Indiana in the Eastern Time Zone)
Fuel: Jet B, Wide cut turbine fuel, Without icing inhibitor.

Jet A1, without icing nhibitor.

100/130 octane gasoline, leaded, MIL-L-5572F (GREEN)

80/87 octane gasoline, leaded, MIL-L-5572F (RED)

Runway information:
16/34 - 7300 x 200 feet< - >2225 x 61 meters

Recent METARs:
CYLW 200400Z AUTO VRB02KT 9SM OVC045 00/M01 A3009 RMK SLP209
CYLW 200500Z AUTO 17008KT 9SM SCT047 01/M01 A3010 RMK SLP210
CYLW 200500Z AUTO 17008KT 9SM SCT047 01/M01 A3010 RMK SLP210

Airport on the map: